Location: Bourg-d�Oueil
(42.8588°N, 0.4991°E)
Time: 14:09:52
(UTC+00:00)

Cosmos 1140 Rocket - Pass Details

Date: 16 June 2021
Orbit: 744 x 767 km, 74.1° (Epoch: 31 July)

Event Time Altitude Azimuth Distance (km) Brightness Sun altitude
Rises 20:24:31 0° 335° (NNW) 3,245 8.2 -7.4°
Reaches altitude 10° 20:26:56 10° 331° (NNW) 2,315 7.4 -7.8°
Maximum altitude 20:32:02 53° 255° (WSW) 940 4.2 -8.5°
Drops below altitude 10° 20:37:05 10° 180° (S) 2,294 5.6 -9.1°
Enters shadow 20:38:45 - 177° (S) 2,926 6.1 -9.3°
